Location: Meanaryar
(48.4161°N, 4.7315°W)
Time: 06:15:38
(UTC+00:00)

USA 234 - Pass Details

Date: 18 September 2020
Orbit: 1102 x 1106 km, 123.0° (Epoch: 16 October)

Event Time Altitude Azimuth Distance (km) Brightness Sun altitude
Rises 22:01:49 0° 57° (ENE) 3,926 6.1 -32.7°
Enters shadow 22:03:21 - 56° (NE) 3,336 5.7 -32.8°
Exits shadow 22:06:55 26° 48° (NE) 2,032 4.6 -33.2°
Maximum altitude 22:10:47 64° 336° (NNW) 1,215 3.5 -33.6°
Drops below altitude 10° 22:17:13 10° 256° (WSW) 2,962 5.7 -34.2°
Sets 22:19:43 0° 254° (WSW) 3,919 6.4 -34.5°
